QPF
0.00 0.00 0.00 0.00 0.00 0.00 0.00 0.00 0.00 0.00 0.01 0.01 0.00 0.00 0.00 0.00 0.00 0.00 0.00 0.00 0.00 0.00 0.00 0.00 0.00 0.00 0.00 0.00 0.00 0.00 0.01 0.01 0.01 0.02 0.03 0.03 0.04 0.04 0.05 0.04 0.03 0.03 0.03 0.03
0.00 0.00 0.00 0.00 0.00 0.00 0.00 0.00 0.00 0.00 0.01 0.00 0.00 0.00 0.00 0.00 0.00 0.00 0.00 0.00 0.00 0.00 0.00 0.00 0.00 0.00 0.00 0.00 0.00 0.01 0.01 0.01 0.01 0.02 0.02 0.03 0.04 0.04 0.04 0.04 0.03 0.03 0.02 0.02
0.00 0.00 0.00 0.00 0.00 0.00 0.00 0.00 0.00 0.00 0.01 0.00 0.00 0.00 0.00 0.00 0.00 0.00 0.00 0.00 0.00 0.00 0.00 0.00 0.00 0.00 0.00 0.00 0.00 0.01 0.01 0.01 0.01 0.01 0.02 0.03 0.03 0.03 0.03 0.03 0.03 0.03 0.03 0.02
0.00 0.01 0.01 0.00 0.00 0.00 0.00 0.00 0.00 0.00 0.00 0.00 0.00 0.00 0.00 0.00 0.00 0.00 0.00 0.00 0.00 0.00 0.00 0.00 0.00 0.00 0.00 0.00 0.00 0.00 0.01 0.01 0.01 0.01 0.01 0.02 0.02 0.03 0.03 0.03 0.04 0.04 0.03 0.02
0.01 0.03 0.02 0.00 0.00 0.00 0.00 0.00 0.00 0.00 0.00 0.00 0.00 0.00 0.00 0.00 0.00 0.00 0.00 0.00 0.00 0.00 0.00 0.00 0.00 0.00 0.00 0.00 0.00 0.00 0.00 0.00 0.00 0.00 0.01 0.01 0.02 0.03 0.04 0.04 0.04 0.03 0.02 0.01
0.07 0.08 0.08 0.03 0.00 0.00 0.00 0.00 0.00 0.00 0.00 0.00 0.00 0.00 0.00 0.00 0.00 0.00 0.00 0.00 0.00 0.00 0.00 0.00 0.00 0.00 0.01 0.01 0.01 0.00 0.00 0.00 0.00 0.00 0.01 0.01 0.02 0.04 0.04 0.04 0.03 0.02 0.01 0.01
0.13 0.15 0.09 0.02 0.01 0.00 0.01 0.00 0.00 0.00 0.00 0.00 0.00 0.00 0.00 0.00 0.00 0.00 0.00 0.00 0.00 0.00 0.00 0.00 0.00 0.00 0.01 0.01 0.01 0.00 0.00 0.00 0.00 0.00 0.00 0.00 0.02 0.03 0.03 0.02 0.02 0.01 0.01 0.01
0.11 0.13 0.10 0.02 0.00 0.01 0.01 0.00 0.00 0.00 0.00 0.00 0.00 0.00 0.00 0.00 0.00 0.00 0.00 0.00 0.00 0.00 0.00 0.00 0.00 0.00 0.01 0.01 0.01 0.00 0.00 0.01 0.01 0.00 0.00 0.00 0.01 0.02 0.01 0.01 0.01 0.00 0.00 0.00
0.10 0.12 0.06 0.02 0.01 0.00 0.00 0.00 0.00 0.00 0.00 0.00 0.00 0.00 0.00 0.00 0.00 0.00 0.00 0.00 0.00 0.00 0.00 0.00 0.00 0.00 0.01 0.01 0.00 0.01 0.01 0.01 0.01 0.00 0.00 0.00 0.00 0.01 0.00 0.00 0.00 0.00 0.00 0.00
0.06 0.06 0.04 0.02 0.01 0.00 0.00 0.00 0.00 0.00 0.00 0.00 0.00 0.00 0.00 0.00 0.00 0.00 0.00 0.00 0.00 0.00 0.00 0.00 0.00 0.00 0.00 0.00 0.00 0.01 0.01 0.01 0.00 0.00 0.00 0.00 0.00 0.00 0.00 0.00 0.00 0.00 0.00 0.00
0.05 0.05 0.03 0.01 0.00 0.00 0.00 0.00 0.00 0.00 0.00 0.00 0.00 0.00 0.00 0.00 0.00 0.00 0.00 0.00 0.00 0.00 0.00 0.00 0.00 0.00 0.00 0.00 0.00 0.00 0.01 0.00 0.00 0.00 0.00 0.00 0.00 0.00 0.00 0.00 0.00 0.00 0.00 0.00
0.05 0.02 0.01 0.00 0.00 0.00 0.00 0.00 0.00 0.00 0.00 0.00 0.00 0.00 0.00 0.00 0.00 0.00 0.00 0.00 0.00 0.00 0.00 0.00 0.00 0.00 0.00 0.00 0.00 0.00 0.00 0.00 0.00 0.00 0.00 0.00 0.00 0.00 0.00 0.00 0.00 0.00 0.00 0.00
0.01 0.01 0.00 0.00 0.00 0.00 0.00 0.00 0.00 0.00 0.00 0.00 0.00 0.00 0.00 0.00 0.00 0.00 0.00 0.00 0.00 0.00 0.00 0.00 0.00 0.00 0.00 0.00 0.00 0.00 0.00 0.00 0.00 0.00 0.00 0.00 0.00 0.00 0.00 0.00 0.01 0.01 0.00 0.00
0.00 0.00 0.00 0.00 0.00 0.00 0.00 0.00 0.00 0.00 0.00 0.00 0.00 0.00 0.00 0.00 0.00 0.00 0.00 0.00 0.00 0.00 0.00 0.00 0.00 0.00 0.00 0.00 0.00 0.00 0.00 0.00 0.00 0.00 0.00 0.00 0.00 0.00 0.00 0.01 0.02 0.02 0.01 0.00
0.00 0.00 0.00 0.00 0.00 0.00 0.00 0.00 0.00 0.00 0.00 0.00 0.00 0.00 0.00 0.00 0.00 0.00 0.00 0.00 0.00 0.00 0.00 0.00 0.00 0.00 0.00 0.00 0.00 0.00 0.00 0.00 0.00 0.00 0.00 0.00 0.00 0.00 0.00 0.00 0.01 0.01 0.01 0.00
0.00 0.00 0.00 0.00 0.00 0.00 0.00 0.00 0.00 0.00 0.00 0.00 0.00 0.00 0.00 0.00 0.00 0.00 0.00 0.00 0.00 0.00 0.00 0.00 0.00 0.00 0.00 0.00 0.00 0.00 0.00 0.00 0.00 0.00 0.00 0.00 0.00 0.00 0.00 0.00 0.01 0.01 0.01 0.00
0.00 0.00 0.00 0.00 0.00 0.00 0.00 0.00 0.00 0.00 0.00 0.00 0.00 0.00 0.00 0.00 0.00 0.00 0.00 0.00 0.00 0.00 0.00 0.00 0.00 0.00 0.00 0.00 0.00 0.00 0.00 0.00 0.00 0.00 0.00 0.00 0.00 0.00 0.00 0.00 0.01 0.01 0.02 0.01
0.00 0.00 0.00 0.00 0.00 0.00 0.00 0.00 0.00 0.00 0.00 0.00 0.00 0.00 0.00 0.00 0.00 0.00 0.00 0.00 0.00 0.00 0.00 0.00 0.00 0.00 0.00 0.00 0.00 0.00 0.00 0.00 0.00 0.00 0.00 0.00 0.00 0.00 0.00 0.00 0.01 0.01 0.01 0.01
0.00 0.00 0.00 0.00 0.00 0.00 0.00 0.00 0.00 0.00 0.00 0.00 0.00 0.00 0.00 0.00 0.00 0.00 0.00 0.00 0.00 0.00 0.00 0.00 0.00 0.00 0.00 0.00 0.00 0.00 0.00 0.00 0.00 0.00 0.00 0.00 0.00 0.00 0.00 0.00 0.00 0.01 0.01 0.01
0.00 0.00 0.00 0.00 0.00 0.00 0.00 0.00 0.00 0.00 0.00 0.00 0.00 0.00 0.00 0.00 0.00 0.00 0.00 0.00 0.00 0.00 0.00 0.00 0.00 0.00 0.00 0.00 0.00 0.00 0.00 0.00 0.00 0.00 0.00 0.00 0.00 0.00 0.00 0.00 0.00 0.00 0.00 0.01
0.00 0.00 0.00 0.00 0.00 0.00 0.00 0.01 0.01 0.01 0.00 0.00 0.00 0.00 0.00 0.00 0.00 0.00 0.00 0.00 0.00 0.00 0.00 0.00 0.00 0.00 0.00 0.00 0.00 0.00 0.00 0.00 0.00 0.00 0.00 0.00 0.00 0.00 0.00 0.00 0.00 0.00 0.00 0.00
0.00 0.00 0.00 0.00 0.00 0.00 0.01 0.01 0.01 0.01 0.00 0.00 0.00 0.00 0.00 0.00 0.00 0.00 0.00 0.00 0.00 0.00 0.00 0.00 0.00 0.00 0.00 0.00 0.00 0.00 0.00 0.00 0.00 0.00 0.00 0.00 0.00 0.00 0.00 0.00 0.00 0.00 0.00 0.00
0.01 0.01 0.01 0.01 0.01 0.01 0.01 0.01 0.01 0.01 0.00 0.00 0.00 0.00 0.00 0.00 0.00 0.00 0.00 0.00 0.00 0.00 0.00 0.00 0.00 0.00 0.00 0.00 0.00 0.00 0.00 0.00 0.00 0.00 0.00 0.00 0.00 0.00 0.00 0.00 0.00 0.00 0.00 0.00
0.02 0.02 0.02 0.01 0.01 0.01 0.01 0.01 0.01 0.01 0.00 0.00 0.00 0.00 0.00 0.00 0.00 0.00 0.00 0.00 0.00 0.00 0.00 0.00 0.00 0.00 0.00 0.00 0.00 0.00 0.00 0.00 0.00 0.00 0.00 0.00 0.00 0.00 0.00 0.00 0.00 0.00 0.00 0.00
0.02 0.02 0.02 0.02 0.02 0.02 0.02 0.01 0.01 0.00 0.00 0.00 0.00 0.00 0.00 0.00 0.00 0.00 0.00 0.00 0.00 0.00 0.00 0.00 0.00 0.00 0.00 0.00 0.00 0.00 0.00 0.00 0.00 0.00 0.00 0.00 0.00 0.00 0.00 0.00 0.00 0.00 0.00 0.00
0.03 0.03 0.03 0.03 0.03 0.02 0.01 0.01 0.01 0.00 0.00 0.00 0.00 0.00 0.00 0.00 0.00 0.00 0.00 0.00 0.00 0.00 0.00 0.00 0.00 0.00 0.00 0.00 0.00 0.00 0.00 0.00 0.00 0.00 0.00 0.00 0.00 0.00 0.00 0.00 0.00 0.00 0.00 0.00
0.03 0.03 0.03 0.03 0.03 0.01 0.01 0.00 0.00 0.00 0.00 0.00 0.00 0.00 0.00 0.00 0.00 0.00 0.00 0.00 0.00 0.00 0.00 0.00 0.00 0.00 0.00 0.00 0.00 0.00 0.00 0.00 0.00 0.00 0.00 0.00 0.00 0.00 0.00 0.00 0.00 0.00 0.00 0.00
MSLP
1006.50 1006.48 1006.49 1006.54 1006.67 1006.86 1007.12 1007.46 1007.86 1008.33 1008.85 1009.44 1010.07 1010.77 1011.51 1012.29 1013.11 1013.94 1014.78 1015.60 1016.38 1017.10 1017.77 1018.37 1018.90 1019.35 1019.72 1020.01 1020.21 1020.31 1020.31 1020.21 1020.01 1019.72 1019.37 1018.98 1018.59 1018.23 1017.92 1017.67 1017.51 1017.40 1017.34 1017.28
1006.73 1006.63 1006.54 1006.49 1006.49 1006.58 1006.77 1007.08 1007.52 1008.07 1008.73 1009.47 1010.29 1011.15 1012.04 1012.93 1013.80 1014.65 1015.45 1016.21 1016.91 1017.56 1018.16 1018.71 1019.19 1019.62 1019.97 1020.24 1020.42 1020.49 1020.44 1020.28 1020.02 1019.68 1019.28 1018.86 1018.45 1018.08 1017.79 1017.59 1017.46 1017.41 1017.39 1017.37
1007.07 1006.92 1006.76 1006.61 1006.52 1006.53 1006.67 1006.97 1007.43 1008.06 1008.83 1009.72 1010.70 1011.71 1012.72 1013.70 1014.62 1015.47 1016.24 1016.94 1017.56 1018.12 1018.64 1019.11 1019.53 1019.90 1020.21 1020.44 1020.57 1020.59 1020.49 1020.28 1019.97 1019.57 1019.13 1018.68 1018.26 1017.90 1017.62 1017.45 1017.36 1017.34 1017.35 1017.36
1007.58 1007.39 1007.17 1006.96 1006.81 1006.76 1006.86 1007.15 1007.64 1008.32 1009.18 1010.17 1011.26 1012.38 1013.49 1014.53 1015.49 1016.34 1017.07 1017.71 1018.25 1018.73 1019.15 1019.53 1019.87 1020.16 1020.40 1020.56 1020.63 1020.59 1020.43 1020.17 1019.80 1019.37 1018.90 1018.43 1018.01 1017.66 1017.40 1017.25 1017.19 1017.19 1017.23 1017.26
1008.22 1008.01 1007.77 1007.52 1007.34 1007.26 1007.34 1007.61 1008.11 1008.82 1009.72 1010.77 1011.92 1013.11 1014.26 1015.34 1016.31 1017.15 1017.86 1018.44 1018.91 1019.30 1019.63 1019.92 1020.17 1020.37 1020.52 1020.59 1020.58 1020.47 1020.25 1019.93 1019.53 1019.07 1018.58 1018.12 1017.71 1017.38 1017.16 1017.03 1016.99 1017.02 1017.08 1017.12
1008.94 1008.72 1008.48 1008.23 1008.04 1007.95 1008.02 1008.30 1008.79 1009.50 1010.41 1011.47 1012.63 1013.82 1014.99 1016.07 1017.03 1017.85 1018.52 1019.05 1019.47 1019.79 1020.04 1020.23 1020.38 1020.49 1020.54 1020.52 1020.42 1020.22 1019.94 1019.58 1019.15 1018.68 1018.21 1017.77 1017.40 1017.11 1016.93 1016.84 1016.84 1016.90 1016.97 1017.02
1009.62 1009.42 1009.20 1008.98 1008.82 1008.76 1008.85 1009.12 1009.61 1010.30 1011.18 1012.21 1013.34 1014.50 1015.62 1016.67 1017.60 1018.39 1019.02 1019.52 1019.88 1020.14 1020.32 1020.43 1020.49 1020.50 1020.45 1020.33 1020.14 1019.87 1019.54 1019.14 1018.70 1018.25 1017.82 1017.43 1017.12 1016.90 1016.78 1016.74 1016.79 1016.88 1016.98 1017.04
1010.15 1009.99 1009.82 1009.68 1009.58 1009.58 1009.72 1010.02 1010.50 1011.16 1012.00 1012.97 1014.02 1015.11 1016.17 1017.15 1018.02 1018.77 1019.36 1019.82 1020.14 1020.35 1020.47 1020.52 1020.50 1020.41 1020.27 1020.06 1019.79 1019.46 1019.08 1018.67 1018.24 1017.83 1017.46 1017.15 1016.92 1016.79 1016.75 1016.79 1016.89 1017.02 1017.14 1017.22
1010.44 1010.35 1010.28 1010.24 1010.25 1010.35 1010.56 1010.91 1011.40 1012.05 1012.83 1013.72 1014.68 1015.67 1016.64 1017.54 1018.34 1019.02 1019.57 1019.98 1020.27 1020.45 1020.52 1020.51 1020.42 1020.26 1020.04 1019.75 1019.42 1019.04 1018.64 1018.23 1017.84 1017.48 1017.19 1016.98 1016.86 1016.83 1016.88 1017.01 1017.17 1017.34 1017.49 1017.58
1010.48 1010.48 1010.54 1010.64 1010.80 1011.03 1011.35 1011.76 1012.29 1012.93 1013.66 1014.48 1015.34 1016.22 1017.08 1017.88 1018.59 1019.21 1019.70 1020.08 1020.33 1020.47 1020.50 1020.44 1020.30 1020.08 1019.79 1019.45 1019.07 1018.67 1018.27 1017.89 1017.54 1017.26 1017.07 1016.96 1016.95 1017.03 1017.18 1017.38 1017.61 1017.82 1017.98 1018.07
1010.33 1010.45 1010.65 1010.91 1011.24 1011.62 1012.07 1012.58 1013.16 1013.81 1014.51 1015.25 1016.02 1016.79 1017.53 1018.23 1018.85 1019.38 1019.82 1020.14 1020.35 1020.46 1020.46 1020.36 1020.18 1019.92 1019.59 1019.22 1018.82 1018.41 1018.02 1017.68 1017.41 1017.21 1017.12 1017.12 1017.22 1017.40 1017.63 1017.90 1018.17 1018.40 1018.56 1018.63
1010.11 1010.36 1010.71 1011.14 1011.63 1012.18 1012.76 1013.38 1014.02 1014.68 1015.36 1016.05 1016.73 1017.40 1018.03 1018.62 1019.14 1019.59 1019.96 1020.23 1020.40 1020.46 1020.43 1020.31 1020.10 1019.81 1019.46 1019.08 1018.68 1018.29 1017.94 1017.66 1017.46 1017.35 1017.35 1017.45 1017.64 1017.90 1018.20 1018.51 1018.80 1019.03 1019.17 1019.20
1009.99 1010.35 1010.83 1011.41 1012.06 1012.74 1013.45 1014.16 1014.86 1015.54 1016.21 1016.85 1017.46 1018.03 1018.56 1019.05 1019.48 1019.84 1020.14 1020.35 1020.47 1020.50 1020.44 1020.30 1020.07 1019.78 1019.43 1019.06 1018.68 1018.34 1018.04 1017.82 1017.70 1017.67 1017.76 1017.94 1018.21 1018.52 1018.86 1019.18 1019.46 1019.66 1019.75 1019.72
1010.08 1010.54 1011.13 1011.82 1012.57 1013.36 1014.16 1014.94 1015.68 1016.37 1017.02 1017.62 1018.16 1018.65 1019.10 1019.49 1019.83 1020.12 1020.34 1020.50 1020.58 1020.57 1020.49 1020.34 1020.11 1019.82 1019.50 1019.16 1018.83 1018.54 1018.30 1018.16 1018.11 1018.16 1018.32 1018.57 1018.88 1019.22 1019.56 1019.87 1020.11 1020.26 1020.29 1020.19
1010.46 1010.98 1011.63 1012.38 1013.20 1014.05 1014.88 1015.69 1016.44 1017.13 1017.75 1018.31 1018.79 1019.22 1019.58 1019.90 1020.17 1020.38 1020.55 1020.65 1020.69 1020.67 1020.58 1020.42 1020.20 1019.94 1019.66 1019.37 1019.10 1018.87 1018.71 1018.64 1018.66 1018.78 1019.00 1019.28 1019.62 1019.97 1020.30 1020.57 1020.76 1020.85 1020.80 1020.62
1011.11 1011.66 1012.33 1013.10 1013.92 1014.76 1015.59 1016.39 1017.12 1017.78 1018.37 1018.87 1019.31 1019.67 1019.98 1020.24 1020.44 1020.61 1020.72 1020.79 1020.81 1020.77 1020.68 1020.54 1020.35 1020.14 1019.90 1019.67 1019.47 1019.32 1019.24 1019.23 1019.32 1019.50 1019.75 1020.06 1020.40 1020.73 1021.03 1021.26 1021.40 1021.42 1021.30 1021.05
1011.97 1012.51 1013.16 1013.89 1014.67 1015.46 1016.25 1016.99 1017.67 1018.29 1018.82 1019.28 1019.67 1019.99 1020.26 1020.47 1020.64 1020.77 1020.86 1020.91 1020.92 1020.89 1020.82 1020.71 1020.56 1020.40 1020.23 1020.07 1019.94 1019.86 1019.84 1019.90 1020.03 1020.24 1020.52 1020.83 1021.16 1021.48 1021.75 1021.94 1022.02 1021.98 1021.81 1021.51
1012.91 1013.42 1014.02 1014.68 1015.39 1016.10 1016.80 1017.47 1018.08 1018.63 1019.11 1019.53 1019.88 1020.17 1020.41 1020.60 1020.76 1020.88 1020.97 1021.02 1021.05 1021.04 1021.00 1020.93 1020.84 1020.74 1020.63 1020.54 1020.47 1020.45 1020.48 1020.58 1020.75 1020.98 1021.26 1021.57 1021.88 1022.17 1022.41 1022.56 1022.61 1022.54 1022.34 1022.01
1013.83 1014.30 1014.83 1015.41 1016.02 1016.63 1017.23 1017.81 1018.34 1018.83 1019.26 1019.64 1019.97 1020.24 1020.47 1020.67 1020.83 1020.97 1021.08 1021.16 1021.22 1021.25 1021.25 1021.24 1021.20 1021.15 1021.11 1021.07 1021.06 1021.08 1021.14 1021.26 1021.44 1021.66 1021.93 1022.21 1022.50 1022.76 1022.97 1023.10 1023.14 1023.06 1022.86 1022.54
1014.64 1015.06 1015.53 1016.02 1016.53 1017.05 1017.56 1018.04 1018.50 1018.93 1019.32 1019.67 1019.98 1020.26 1020.50 1020.71 1020.90 1021.07 1021.22 1021.34 1021.45 1021.53 1021.59 1021.62 1021.65 1021.65 1021.66 1021.66 1021.68 1021.72 1021.80 1021.91 1022.07 1022.27 1022.50 1022.75 1023.00 1023.23 1023.42 1023.54 1023.58 1023.52 1023.35 1023.06
1015.30 1015.70 1016.10 1016.53 1016.95 1017.38 1017.80 1018.21 1018.61 1018.98 1019.34 1019.67 1019.98 1020.26 1020.53 1020.78 1021.01 1021.22 1021.41 1021.59 1021.75 1021.88 1022.00 1022.09 1022.16 1022.21 1022.25 1022.28 1022.31 1022.36 1022.42 1022.51 1022.64 1022.79 1022.98 1023.18 1023.39 1023.59 1023.76 1023.89 1023.94 1023.91 1023.79 1023.56
1015.86 1016.23 1016.59 1016.95 1017.31 1017.66 1018.01 1018.36 1018.70 1019.04 1019.36 1019.68 1020.00 1020.30 1020.60 1020.88 1021.15 1021.41 1021.66 1021.89 1022.10 1022.29 1022.46 1022.59 1022.71 1022.80 1022.86 1022.91 1022.94 1022.98 1023.02 1023.07 1023.15 1023.25 1023.38 1023.54 1023.70 1023.87 1024.03 1024.15 1024.23 1024.24 1024.18 1024.03
1016.34 1016.70 1017.03 1017.34 1017.65 1017.94 1018.23 1018.53 1018.82 1019.12 1019.43 1019.74 1020.06 1020.38 1020.70 1021.01 1021.32 1021.63 1021.92 1022.20 1022.46 1022.70 1022.91 1023.09 1023.24 1023.36 1023.45 1023.50 1023.54 1023.56 1023.58 1023.60 1023.63 1023.69 1023.76 1023.87 1024.00 1024.14 1024.28 1024.41 1024.50 1024.56 1024.55 1024.48
1016.81 1017.15 1017.46 1017.74 1017.99 1018.24 1018.48 1018.73 1018.98 1019.25 1019.54 1019.83 1020.15 1020.47 1020.81 1021.15 1021.49 1021.82 1022.15 1022.47 1022.77 1023.05 1023.30 1023.52 1023.71 1023.85 1023.96 1024.04 1024.08 1024.10 1024.11 1024.11 1024.11 1024.14 1024.18 1024.25 1024.34 1024.46 1024.59 1024.72 1024.84 1024.93 1024.97 1024.96
1017.27 1017.60 1017.89 1018.14 1018.36 1018.56 1018.76 1018.96 1019.17 1019.41 1019.66 1019.94 1020.24 1020.56 1020.90 1021.24 1021.60 1021.95 1022.31 1022.65 1022.98 1023.29 1023.58 1023.83 1024.05 1024.23 1024.38 1024.48 1024.55 1024.59 1024.61 1024.62 1024.62 1024.64 1024.67 1024.73 1024.81 1024.92 1025.04 1025.17 1025.30 1025.41 1025.49 1025.52
1017.72 1018.04 1018.31 1018.53 1018.72 1018.88 1019.03 1019.19 1019.36 1019.55 1019.77 1020.02 1020.30 1020.60 1020.93 1021.27 1021.62 1021.99 1022.35 1022.71 1023.06 1023.40 1023.71 1024.00 1024.26 1024.48 1024.67 1024.82 1024.94 1025.03 1025.09 1025.14 1025.18 1025.23 1025.29 1025.36 1025.45 1025.55 1025.68 1025.81 1025.94 1026.06 1026.14 1026.20
1018.12 1018.43 1018.68 1018.88 1019.03 1019.16 1019.27 1019.39 1019.52 1019.67 1019.85 1020.06 1020.31 1020.58 1020.89 1021.22 1021.56 1021.92 1022.28 1022.65 1023.01 1023.37 1023.71 1024.03 1024.33 1024.61 1024.85 1025.07 1025.26 1025.42 1025.56 1025.68 1025.80 1025.90 1026.01 1026.12 1026.24 1026.37 1026.50 1026.63 1026.76 1026.87 1026.95 1027.01
Thickness
5696 5711 5720 5716 5707 5708 5706 5711 5708 5702 5684 5683 5679 5671 5666 5659 5651 5642 5632 5624 5616 5605 5594 5584 5573 5562 5552 5543 5534 5525 5518 5512 5507 5503 5500 5496 5493 5489 5485 5480 5476 5470 5465 5460
5678 5696 5705 5706 5704 5696 5694 5697 5704 5690 5665 5680 5674 5664 5655 5648 5640 5631 5623 5615 5605 5594 5583 5571 5559 5549 5540 5532 5523 5516 5511 5507 5504 5500 5497 5494 5490 5485 5480 5474 5468 5462 5456 5449
5656 5677 5684 5680 5695 5698 5699 5700 5694 5668 5654 5666 5658 5651 5644 5637 5629 5621 5612 5603 5592 5580 5569 5558 5547 5537 5529 5522 5516 5511 5506 5503 5501 5497 5494 5490 5486 5481 5474 5468 5461 5453 5447 5440
5645 5653 5641 5669 5692 5697 5691 5679 5674 5660 5653 5653 5646 5640 5633 5626 5617 5608 5599 5588 5577 5567 5557 5547 5538 5529 5521 5516 5511 5508 5504 5501 5497 5493 5490 5485 5481 5475 5468 5461 5454 5446 5440 5432
5631 5636 5646 5651 5668 5675 5665 5652 5661 5654 5646 5639 5634 5623 5613 5609 5603 5593 5583 5572 5563 5554 5546 5537 5529 5521 5514 5510 5508 5505 5502 5498 5494 5490 5485 5481 5476 5469 5462 5455 5448 5441 5434 5426
5607 5610 5617 5636 5657 5666 5651 5628 5645 5643 5635 5627 5620 5605 5594 5596 5589 5579 5569 5558 5550 5543 5536 5528 5520 5513 5509 5507 5505 5502 5499 5496 5492 5487 5482 5478 5472 5464 5457 5450 5443 5435 5428 5420
5592 5592 5597 5624 5639 5641 5614 5613 5630 5628 5619 5612 5602 5597 5587 5581 5572 5563 5554 5545 5539 5532 5526 5518 5512 5507 5505 5505 5503 5500 5498 5495 5491 5486 5480 5476 5469 5461 5453 5446 5438 5431 5422 5414
5599 5586 5579 5610 5617 5611 5608 5616 5617 5611 5603 5593 5588 5580 5575 5568 5559 5551 5543 5534 5528 5523 5517 5511 5506 5504 5503 5503 5502 5500 5498 5494 5490 5485 5480 5475 5467 5459 5451 5442 5434 5426 5416 5408
5583 5578 5589 5597 5600 5603 5606 5603 5601 5597 5591 5584 5577 5571 5564 5556 5548 5540 5532 5525 5519 5515 5511 5506 5504 5503 5503 5502 5502 5500 5497 5494 5490 5486 5480 5474 5466 5457 5448 5438 5427 5418 5408 5400
5572 5570 5577 5582 5585 5588 5590 5590 5588 5585 5580 5575 5567 5560 5553 5546 5537 5530 5522 5517 5513 5510 5507 5504 5505 5505 5504 5503 5501 5499 5496 5494 5490 5486 5479 5472 5465 5455 5444 5431 5417 5406 5395 5388
5564 5563 5563 5566 5572 5575 5576 5577 5576 5572 5569 5563 5556 5549 5542 5534 5526 5520 5515 5510 5507 5505 5504 5505 5505 5506 5506 5503 5501 5498 5495 5492 5487 5483 5476 5468 5459 5444 5430 5410 5398 5388 5379 5375
5555 5560 5559 5559 5563 5564 5564 5564 5562 5559 5554 5550 5545 5538 5531 5524 5517 5512 5508 5505 5503 5503 5504 5505 5507 5507 5505 5502 5500 5496 5492 5487 5481 5477 5470 5463 5452 5433 5415 5401 5388 5378 5370 5365
5562 5565 5562 5560 5558 5558 5556 5554 5550 5546 5541 5535 5531 5526 5521 5515 5510 5507 5504 5502 5501 5503 5505 5507 5508 5506 5504 5501 5497 5491 5486 5479 5475 5471 5465 5457 5447 5433 5412 5395 5383 5375 5368 5363
5564 5560 5554 5552 5550 5548 5545 5541 5537 5533 5529 5524 5519 5516 5512 5508 5505 5502 5500 5499 5501 5505 5507 5508 5506 5503 5502 5499 5495 5488 5481 5475 5469 5465 5458 5450 5438 5425 5412 5399 5386 5375 5367 5361
5552 5550 5546 5542 5539 5535 5532 5528 5525 5521 5518 5514 5511 5508 5505 5502 5500 5498 5497 5499 5503 5506 5506 5505 5503 5501 5500 5497 5493 5485 5476 5470 5464 5458 5451 5441 5428 5416 5404 5393 5383 5374 5367 5361
5540 5537 5534 5530 5526 5524 5523 5521 5518 5514 5511 5508 5504 5502 5500 5498 5496 5495 5497 5500 5503 5503 5503 5501 5500 5499 5497 5493 5491 5484 5473 5463 5459 5452 5443 5432 5421 5409 5398 5388 5379 5370 5363 5356
5528 5523 5520 5518 5517 5517 5516 5515 5512 5510 5506 5502 5499 5496 5495 5494 5493 5494 5497 5500 5500 5500 5499 5498 5497 5496 5493 5488 5485 5482 5475 5465 5457 5449 5437 5426 5414 5404 5394 5384 5376 5368 5361 5354
5520 5517 5514 5512 5512 5511 5510 5510 5508 5505 5501 5497 5494 5492 5492 5491 5493 5495 5498 5499 5499 5497 5495 5495 5493 5493 5489 5484 5479 5477 5471 5462 5454 5445 5432 5420 5410 5400 5391 5382 5374 5366 5360 5356
5511 5509 5508 5508 5508 5508 5507 5505 5503 5500 5496 5493 5490 5489 5490 5491 5493 5497 5500 5502 5500 5497 5495 5494 5491 5490 5486 5482 5478 5474 5467 5460 5451 5442 5430 5417 5408 5399 5390 5382 5374 5366 5360 5356
5502 5502 5502 5503 5503 5503 5502 5500 5497 5493 5491 5488 5487 5486 5488 5490 5494 5498 5501 5500 5499 5497 5495 5492 5492 5488 5484 5479 5476 5471 5464 5456 5448 5440 5429 5418 5408 5398 5390 5382 5374 5367 5361 5357
5495 5497 5498 5498 5498 5498 5497 5495 5491 5488 5486 5484 5483 5484 5487 5490 5496 5499 5501 5498 5497 5495 5494 5491 5489 5485 5479 5473 5473 5468 5461 5453 5445 5437 5429 5420 5409 5400 5391 5383 5375 5368 5362 5358
5490 5492 5493 5494 5493 5492 5491 5489 5487 5484 5482 5481 5482 5484 5487 5491 5497 5500 5501 5499 5497 5493 5494 5492 5485 5478 5474 5473 5471 5465 5458 5451 5443 5435 5427 5420 5412 5403 5394 5385 5378 5371 5365 5361
5484 5485 5486 5487 5487 5486 5485 5483 5482 5480 5479 5480 5482 5484 5489 5495 5499 5500 5499 5499 5498 5493 5492 5487 5480 5477 5472 5475 5469 5462 5455 5448 5442 5434 5426 5418 5411 5404 5397 5390 5383 5376 5371 5366
5477 5478 5479 5480 5480 5479 5478 5478 5477 5476 5477 5479 5482 5486 5491 5497 5501 5500 5496 5493 5493 5492 5488 5483 5479 5477 5474 5474 5467 5460 5453 5446 5440 5432 5425 5418 5410 5403 5397 5391 5386 5380 5375 5370
5472 5472 5473 5473 5473 5473 5472 5472 5471 5472 5474 5478 5483 5488 5495 5500 5501 5498 5496 5492 5490 5490 5488 5484 5481 5478 5476 5470 5463 5456 5448 5442 5437 5431 5423 5417 5410 5403 5396 5390 5385 5379 5375 5371
5464 5465 5465 5466 5467 5466 5467 5467 5468 5470 5474 5479 5484 5490 5498 5500 5498 5495 5494 5494 5493 5491 5491 5488 5485 5481 5477 5471 5464 5458 5451 5444 5437 5430 5423 5416 5409 5401 5394 5388 5383 5378 5372 5367
5457 5458 5458 5459 5459 5460 5461 5463 5465 5469 5474 5480 5487 5493 5498 5499 5498 5498 5498 5497 5495 5496 5495 5493 5488 5483 5477 5471 5465 5458 5451 5445 5438 5431 5424 5417 5409 5401 5394 5386 5380 5374 5370 5364